Find Starlink 11359

NORAD ID: 61884 Int'l Des: 2024-204 Owner: SPXS Country: US Constellation: starlink operational
LEOCIRCULAR

Live-Position

3D-Globus wird geladen...

Über Starlink 11359

Beschreibung wird geladen...

Nächste Überflüge

Passes for default location (London). Set your location on the main map for personalized predictions.

Höhenverlauf

Loading altitude history...

Zweizeiliger Elementsatz

1 61884U 24204L 26121.13721926 .00001015 00000-0 13234-4 0 9996
2 61884 53.1591 97.6041 0001004 100.2202 259.8929 15.69718252 85151
Epoch: 1. Mai 2026 • Age: 8 hours

Aktueller Status

Höhe 364.2 km
Geschwindigkeit 7.70 km/s
Subsatellitenpunkt 46.78°N, 120.87°E
Startdatum 9. Nov. 2024
Alter 1.4 years
Typ internet

Technische Details

Klassifizierung Payload
Masse 960.00 kg
Trockenmasse 910.00 kg
Gesamtmasse 960.00 kg
Länge 0.30 m
Durchmesser 4.10 m
Spannweite 29.00 m
Form Box + pan
Hersteller SPXS
Bus-Typ Starlink V2MD
Phasenstatus In Orbit
Besitzer/Staat SPXS/US

Most Searched